Temp
50 50 51 51 51 50 49 49 50 49 47 45 45 44 44 44 44 45 45 44 46 46 45 45 45 45 45 44 44 43 43 43 43 45 46 45 44 43 43 43 43 43 43 43 42 42 42 42 42 44 45 45 44 43 43 43 43 42 42 42 43 43 42 41 41 41 41 41 42
49 49 51 53 53 51 49 49 49 48 47 45 45 44 43 44 44 44 44 44 45 45 45 45 45 43 42 43 44 43 42 42 42 43 44 43 43 42 42 42 42 43 43 43 42 42 42 41 42 43 45 45 44 43 42 43 42 42 41 41 42 42 42 42 41 41 41 41 41
48 48 48 48 48 48 48 48 46 45 44 44 44 44 44 44 45 45 45 44 43 43 44 44 45 44 42 42 41 41 41 41 41 42 42 42 42 42 42 42 42 42 43 43 42 42 42 41 42 44 46 45 43 42 42 42 43 42 42 41 42 43 43 44 43 42 42 42 41
47 47 46 46 45 45 46 47 45 44 44 45 43 43 44 44 45 44 44 42 43 43 43 42 44 44 44 42 41 41 41 44 44 43 41 41 41 41 41 41 41 41 41 41 41 41 41 40 42 44 44 42 41 41 42 43 42 42 42 42 42 42 43 44 43 43 43 43 41
47 47 46 45 45 44 43 43 43 43 43 44 43 43 44 44 44 43 43 45 44 44 43 42 43 43 43 43 41 41 41 42 45 44 41 41 41 41 40 40 41 41 41 41 41 41 41 40 42 43 43 41 42 42 42 40 40 40 41 42 43 43 43 43 43 43 43 43 42
47 46 45 45 44 44 43 42 42 42 42 43 43 43 43 44 44 44 43 43 42 42 43 45 45 45 45 41 41 41 40 40 41 41 40 40 40 40 40 40 40 40 40 41 40 41 40 40 42 43 43 42 42 41 40 39 39 39 40 41 42 42 42 41 42 42 42 41 40
46 46 45 45 45 44 44 43 42 42 42 42 42 42 43 43 42 42 42 41 41 41 43 46 45 44 42 41 40 40 40 40 40 40 40 40 40 40 40 40 40 40 40 40 40 40 40 39 41 43 44 45 44 42 40 38 39 39 39 40 41 42 42 40 41 41 41 39 38
45 45 45 45 44 44 44 43 43 42 43 43 43 42 42 42 42 41 41 41 41 42 43 44 42 40 40 40 40 40 40 40 40 40 40 40 40 40 40 40 40 40 40 40 40 39 39 39 41 41 41 42 43 42 40 39 38 38 38 39 40 41 41 40 40 40 39 38 38
45 45 44 44 43 43 43 42 42 42 43 42 42 42 42 42 42 41 41 41 42 43 43 41 40 40 39 39 40 40 40 40 40 40 40 39 40 40 40 40 40 40 40 40 40 39 39 39 40 40 40 41 41 40 39 38 38 38 38 39 39 39 39 39 39 39 38 38 38
44 44 44 43 43 43 43 42 42 42 42 42 41 41 43 45 43 41 41 42 43 42 40 40 39 39 40 40 40 40 40 40 40 40 40 40 41 41 40 40 40 40 40 39 39 39 38 39 39 38 38 38 38 38 38 38 38 38 38 40 40 39 38 38 38 38 38 38 38
43 43 43 43 43 43 44 42 42 43 42 41 41 41 42 44 42 42 42 43 41 40 40 39 39 40 40 40 40 40 40 40 40 40 40 40 41 40 40 39 39 39 39 39 38 38 38 38 38 38 37 37 38 38 38 37 37 37 37 38 38 38 38 38 38 38 38 38 38
43 43 43 43 43 43 43 42 42 42 42 42 41 41 41 41 41 42 43 41 40 40 40 39 40 40 40 40 40 41 41 39 39 40 40 40 40 39 39 39 39 39 38 38 38 38 38 38 38 37 37 37 37 38 38 37 37 37 37 37 37 37 38 38 38 38 38 38 38
44 43 43 43 43 42 42 42 41 41 41 41 41 41 41 41 42 42 42 40 41 41 40 40 41 41 40 40 39 39 39 39 39 39 40 40 39 39 39 39 38 38 38 38 37 38 38 38 37 37 37 36 37 37 37 37 36 36 36 37 37 37 37 37 38 38 38 38 38
44 44 43 43 42 42 42 41 41 41 41 41 40 40 40 40 41 42 41 40 40 40 39 40 42 42 41 40 39 39 39 39 39 39 39 39 39 39 38 38 38 38 38 37 37 37 37 37 37 37 36 36 36 36 36 36 36 36 36 36 36 36 37 37 37 37 37 37 38
43 43 43 42 42 42 41 41 42 42 42 41 40 40 40 40 41 42 41 39 39 39 39 39 40 41 41 41 39 39 39 39 39 39 39 39 39 38 38 38 38 38 37 37 37 37 37 37 37 36 36 36 36 36 36 36 36 36 36 36 36 36 37 37 37 38 38 37 38
43 43 42 42 41 41 41 41 41 42 42 41 41 40 40 39 40 42 42 40 39 38 38 38 38 38 39 41 41 40 39 39 39 39 39 38 38 38 38 38 38 38 37 37 37 37 37 36 37 36 36 36 36 36 36 36 36 36 36 36 36 36 37 38 38 38 38 38 38
42 42 42 41 41 41 41 40 40 41 41 40 41 40 39 39 40 42 43 42 39 38 38 38 38 38 38 40 41 41 40 39 39 39 38 38 38 38 38 38 38 37 37 36 36 36 36 36 36 36 36 36 36 36 36 36 35 35 36 36 36 36 37 39 39 39 39 39 39
41 41 41 41 41 41 41 40 40 40 40 40 40 40 39 39 40 40 42 42 40 39 39 38 38 38 38 39 39 40 41 39 39 38 38 38 38 38 37 37 37 37 36 36 36 36 36 36 36 36 36 36 36 36 36 36 36 36 36 36 37 37 38 39 40 40 41 41 41
41 41 41 41 41 41 41 42 41 41 40 40 40 40 39 39 39 39 39 40 40 40 39 38 38 38 38 39 38 40 41 40 39 38 38 38 37 37 37 37 37 36 36 35 35 36 36 36 36 36 37 37 37 37 37 36 36 36 36 37 38 38 39 40 41 41 42 42 43
40 40 41 41 41 41 41 42 41 40 40 40 40 40 40 39 39 39 39 39 40 40 38 38 38 38 39 39 38 39 39 40 39 38 37 37 37 37 37 36 36 36 35 35 35 35 36 36 36 37 37 37 37 37 37 37 37 37 38 39 39 39 40 41 41 41 42 42 42
40 40 41 41 41 40 40 40 40 40 40 40 40 39 39 39 39 39 39 40 40 39 38 38 39 39 38 38 38 37 38 40 38 37 37 37 37 37 37 37 36 35 35 35 35 36 36 36 37 37 38 38 38 39 39 38 37 38 40 41 40 40 40 41 41 41 42 42 42
40 40 40 40 40 40 40 40 39 39 39 39 39 39 39 39 39 39 39 40 39 39 38 38 38 38 38 38 37 37 37 38 37 37 37 37 37 38 38 37 36 35 35 35 35 36 36 37 37 38 38 40 41 42 43 43 43 42 41 40 39 40 40 41 41 41 41 41 41
40 40 40 40 40 42 42 41 39 39 39 39 39 39 38 39 39 38 38 38 40 40 39 38 38 38 38 37 37 36 36 37 37 37 37 37 37 37 37 36 36 35 35 35 35 36 36 37 38 39 41 43 44 45 46 45 45 43 41 39 39 40 40 41 41 41 41 41 41
40 40 40 40 40 40 40 40 39 39 39 39 39 38 38 38 38 38 38 38 38 39 38 38 38 38 37 37 37 37 37 37 37 37 37 37 37 36 36 35 35 35 35 36 38 40 41 42 42 43 45 46 47 47 46 46 44 42 40 39 39 40 40 41 42 42 42 42 42
39 41 41 40 40 39 39 39 39 39 39 39 38 38 38 38 38 38 38 38 38 38 38 38 37 37 37 37 37 37 37 37 37 37 37 37 36 36 35 35 35 35 36 40 47 50 51 50 49 48 47 47 47 47 46 45 43 41 40 39 40 40 41 42 43 43 43 42 41
39 40 40 39 39 39 39 39 39 39 38 38 37 37 38 38 39 38 37 38 38 38 37 37 37 39 40 39 38 37 37 37 37 37 36 36 35 35 35 34 35 35 38 45 50 52 53 53 52 51 49 48 48 47 46 44 42 41 40 41 41 42 43 43 43 42 41 40 39
39 39 39 39 39 39 39 39 38 38 38 37 38 38 38 37 37 37 37 37 37 37 37 37 37 40 42 39 38 37 37 37 36 36 36 35 35 34 34 34 35 37 41 48 51 53 53 53 53 53 51 49 47 46 45 44 43 42 42 43 44 43 42 41 40 40 39 39 39
39 39 38 38 39 39 38 38 38 38 38 38 38 38 37 37 37 37 37 37 37 37 37 37 39 39 39 38 37 37 37 36 36 36 35 34 34 34 34 34 34 38 44 51 52 52 53 53 53 53 53 51 48 46 45 45 44 44 44 44 43 41 40 39 38 38 38 38 38
38 38 38 38 39 38 38 38 38 38 38 38 37 37 37 37 37 37 36 36 36 37 37 38 39 39 38 37 37 36 36 36 36 36 35 35 34 34 34 35 35 39 45 52 52 52 52 53 53 53 53 52 49 46 45 44 44 43 43 42 40 38 38 38 38 38 38 38 39
38 38 38 38 38 38 38 38 38 38 37 37 37 37 37 37 37 36 36 36 37 38 38 38 38 37 37 36 36 36 36 36 36 35 35 34 35 35 36 38 36 39 45 51 52 52 52 53 53 53 53 53 50 47 45 44 43 41 40 39 37 37 37 38 38 38 38 38 38
38 38 38 39 38 38 38 37 37 37 37 37 37 37 37 37 36 36 36 37 37 39 40 38 37 36 36 36 36 36 36 36 35 35 35 34 37 37 36 35 35 39 45 51 52 52 52 53 53 53 53 53 50 47 45 43 41 39 38 37 37 37 37 38 38 38 38 38 38
38 38 38 39 38 37 37 37 37 37 37 37 37 37 37 36 36 36 36 37 38 38 38 37 37 36 36 35 36 36 36 36 36 36 36 35 35 35 35 36 35 39 45 51 52 52 52 53 53 53 53 53 51 48 44 41 39 38 37 37 37 37 37 38 38 38 38 38 39
38 38 37 38 37 37 37 36 36 36 36 36 36 36 36 36 35 35 35 37 38 37 37 37 36 36 36 36 36 36 36 37 37 38 38 38 36 35 35 36 36 41 47 51 52 52 52 53 53 53 53 53 50 47 43 40 38 37 37 37 37 37 37 37 38 38 38 39 40
37 37 37 37 38 37 36 36 36 36 36 36 36 36 36 35 35 35 36 39 38 38 37 37 37 36 36 37 36 36 37 39 38 37 36 35 34 34 35 36 37 43 49 51 52 52 52 52 52 52 53 53 49 45 42 39 37 37 36 37 37 37 38 38 38 38 39 39 40
37 37 37 37 37 37 36 36 36 36 36 36 36 36 35 35 35 36 37 40 40 39 37 36 36 36 36 36 36 37 38 38 37 36 35 35 34 35 36 36 37 43 49 51 52 52 52 52 52 52 52 52 48 45 42 40 39 37 37 36 37 37 38 38 39 39 39 39 40
37 37 37 36 36 36 36 36 35 35 36 36 36 35 35 34 35 36 38 41 40 38 36 36 36 36 36 36 36 38 39 37 36 36 36 36 35 35 35 36 36 41 47 51 51 51 51 52 52 52 52 50 46 44 43 42 40 38 36 36 36 37 38 38 39 39 40 40 41
37 37 37 36 36 36 36 35 35 35 35 35 35 35 35 35 35 36 37 41 38 36 36 36 36 36 36 36 37 37 37 37 36 36 36 37 37 36 35 35 35 40 45 50 50 51 51 51 51 52 51 48 45 44 43 42 39 37 35 35 36 37 38 39 39 40 41 41 42
37 37 37 37 37 37 36 35 35 35 35 35 34 34 35 35 35 36 38 41 38 36 36 36 36 36 36 37 37 37 37 36 37 37 36 36 36 36 36 36 35 38 43 48 50 50 50 51 51 51 50 47 45 43 42 40 38 36 35 36 37 38 38 40 41 41 42 42 45
38 38 38 37 37 36 36 35 35 35 35 34 34 34 34 35 36 37 39 41 38 36 36 36 36 36 37 39 38 38 37 37 37 37 37 36 37 39 40 37 35 37 42 47 49 50 50 50 51 51 50 47 45 43 41 39 37 36 36 36 38 39 39 40 41 41 42 42 46
38 38 37 36 36 36 35 35 35 35 34 34 34 34 35 36 38 39 40 39 37 36 36 36 36 37 39 42 40 38 37 37 36 36 37 38 39 43 44 38 35 36 40 46 48 49 50 50 50 51 50 47 45 43 41 38 37 36 37 38 39 40 40 41 41 41 41 42 45
37 37 38 37 36 36 35 35 35 34 34 34 34 36 37 39 39 39 38 36 36 36 36 37 37 37 38 42 40 38 36 36 36 36 37 39 39 41 41 37 34 34 37 42 47 49 50 50 50 50 50 48 45 43 41 39 38 38 38 39 39 40 41 41 41 41 42 42 43
MSLP
1021.71 1021.79 1021.87 1021.95 1022.07 1022.19 1022.31 1022.39 1022.47 1022.51 1022.63 1022.79 1022.99 1023.11 1023.19 1023.31 1023.47 1023.55 1023.59 1023.67 1023.75 1023.75 1023.75 1023.75 1023.83 1023.83 1023.79 1023.79 1023.75 1023.75 1023.79 1023.75 1023.75 1023.75 1023.71 1023.71 1023.71 1023.67 1023.59 1023.55 1023.47 1023.47 1023.43 1023.39 1023.31 1023.31 1023.23 1023.19 1023.19 1023.15 1023.07 1023.03 1023.07 1023.07 1023.03 1022.91 1022.91 1022.91 1022.91 1022.87 1022.79 1022.75 1022.71 1022.75 1022.67 1022.59 1022.55 1022.47 1022.35
1021.87 1021.91 1021.99 1022.03 1022.11 1022.23 1022.39 1022.47 1022.55 1022.63 1022.75 1022.87 1023.03 1023.11 1023.19 1023.31 1023.47 1023.59 1023.63 1023.71 1023.71 1023.71 1023.75 1023.79 1023.83 1023.83 1023.83 1023.83 1023.75 1023.75 1023.79 1023.83 1023.83 1023.79 1023.75 1023.75 1023.71 1023.67 1023.59 1023.55 1023.47 1023.47 1023.43 1023.35 1023.31 1023.31 1023.27 1023.23 1023.23 1023.19 1023.15 1023.07 1023.07 1023.07 1023.03 1022.91 1022.91 1022.91 1022.91 1022.87 1022.75 1022.71 1022.67 1022.63 1022.59 1022.51 1022.47 1022.35 1022.31
1022.03 1022.07 1022.15 1022.19 1022.31 1022.39 1022.51 1022.63 1022.75 1022.83 1022.91 1022.99 1023.03 1023.11 1023.23 1023.31 1023.47 1023.55 1023.63 1023.67 1023.75 1023.75 1023.79 1023.83 1023.83 1023.83 1023.83 1023.87 1023.79 1023.79 1023.79 1023.87 1023.87 1023.83 1023.79 1023.75 1023.71 1023.63 1023.59 1023.55 1023.47 1023.43 1023.35 1023.31 1023.31 1023.27 1023.27 1023.27 1023.23 1023.19 1023.15 1023.11 1023.15 1023.11 1023.03 1022.91 1022.87 1022.87 1022.87 1022.87 1022.75 1022.67 1022.63 1022.59 1022.47 1022.43 1022.31 1022.27 1022.23
1022.19 1022.23 1022.31 1022.39 1022.47 1022.55 1022.63 1022.75 1022.87 1022.91 1022.99 1023.03 1023.11 1023.19 1023.27 1023.35 1023.47 1023.55 1023.63 1023.75 1023.75 1023.79 1023.83 1023.87 1023.83 1023.83 1023.83 1023.87 1023.87 1023.83 1023.79 1023.79 1023.83 1023.87 1023.83 1023.75 1023.71 1023.63 1023.59 1023.55 1023.47 1023.43 1023.35 1023.31 1023.31 1023.27 1023.27 1023.27 1023.19 1023.19 1023.15 1023.15 1023.19 1023.11 1023.03 1022.91 1022.87 1022.87 1022.83 1022.75 1022.67 1022.59 1022.59 1022.51 1022.43 1022.31 1022.27 1022.23 1022.19
1022.31 1022.35 1022.39 1022.47 1022.59 1022.63 1022.71 1022.79 1022.91 1022.95 1023.03 1023.11 1023.19 1023.31 1023.39 1023.47 1023.51 1023.59 1023.67 1023.75 1023.75 1023.83 1023.87 1023.87 1023.87 1023.87 1023.87 1023.87 1023.87 1023.87 1023.87 1023.83 1023.79 1023.79 1023.83 1023.79 1023.71 1023.59 1023.59 1023.55 1023.47 1023.47 1023.39 1023.35 1023.31 1023.31 1023.27 1023.27 1023.19 1023.19 1023.19 1023.15 1023.11 1023.03 1022.95 1022.91 1022.91 1022.91 1022.79 1022.71 1022.63 1022.59 1022.55 1022.47 1022.39 1022.31 1022.19 1022.19 1022.11
1022.43 1022.47 1022.47 1022.51 1022.59 1022.67 1022.75 1022.87 1022.95 1023.03 1023.11 1023.19 1023.31 1023.43 1023.51 1023.55 1023.59 1023.63 1023.75 1023.83 1023.87 1023.87 1023.87 1023.83 1023.83 1023.83 1023.87 1023.91 1023.95 1023.95 1023.95 1023.91 1023.83 1023.83 1023.87 1023.79 1023.75 1023.63 1023.59 1023.55 1023.47 1023.47 1023.39 1023.35 1023.31 1023.27 1023.27 1023.27 1023.19 1023.19 1023.15 1023.11 1023.03 1023.03 1022.99 1022.95 1022.91 1022.91 1022.83 1022.75 1022.63 1022.55 1022.47 1022.47 1022.35 1022.27 1022.19 1022.15 1022.07
1022.51 1022.55 1022.55 1022.55 1022.59 1022.67 1022.75 1022.91 1022.99 1023.07 1023.19 1023.23 1023.35 1023.51 1023.59 1023.63 1023.67 1023.75 1023.83 1023.87 1023.87 1023.87 1023.87 1023.83 1023.87 1023.87 1023.95 1024.03 1024.03 1024.03 1024.03 1023.95 1023.87 1023.87 1023.83 1023.79 1023.75 1023.67 1023.59 1023.59 1023.51 1023.47 1023.39 1023.35 1023.31 1023.27 1023.27 1023.27 1023.19 1023.19 1023.11 1023.03 1023.03 1022.99 1022.91 1022.91 1022.91 1022.91 1022.83 1022.75 1022.63 1022.55 1022.47 1022.43 1022.31 1022.23 1022.19 1022.19 1022.15
1022.55 1022.59 1022.59 1022.63 1022.71 1022.75 1022.87 1022.91 1023.03 1023.07 1023.19 1023.31 1023.47 1023.59 1023.59 1023.67 1023.75 1023.79 1023.87 1023.87 1023.91 1023.91 1023.91 1023.87 1023.95 1024.03 1024.03 1024.07 1024.07 1024.07 1024.03 1023.99 1023.91 1023.87 1023.83 1023.79 1023.75 1023.71 1023.63 1023.59 1023.51 1023.47 1023.39 1023.35 1023.31 1023.31 1023.27 1023.23 1023.19 1023.19 1023.15 1023.11 1023.07 1022.99 1022.91 1022.91 1022.91 1022.91 1022.87 1022.79 1022.63 1022.51 1022.43 1022.35 1022.31 1022.23 1022.19 1022.19 1022.11
1022.67 1022.67 1022.67 1022.71 1022.79 1022.91 1022.95 1023.03 1023.07 1023.19 1023.31 1023.43 1023.51 1023.59 1023.63 1023.71 1023.75 1023.79 1023.87 1023.91 1023.95 1023.91 1023.91 1023.95 1024.03 1024.03 1024.03 1024.11 1024.11 1024.07 1024.03 1023.99 1023.91 1023.87 1023.87 1023.83 1023.75 1023.71 1023.63 1023.59 1023.55 1023.51 1023.43 1023.31 1023.31 1023.31 1023.31 1023.27 1023.19 1023.19 1023.15 1023.11 1023.03 1022.99 1022.91 1022.91 1022.91 1022.87 1022.83 1022.75 1022.63 1022.51 1022.43 1022.35 1022.27 1022.23 1022.19 1022.15 1022.03
1022.79 1022.83 1022.83 1022.91 1022.91 1022.95 1023.03 1023.07 1023.19 1023.27 1023.39 1023.47 1023.59 1023.59 1023.63 1023.67 1023.75 1023.83 1023.91 1023.95 1023.91 1023.95 1024.03 1024.03 1024.03 1024.07 1024.07 1024.07 1024.07 1024.03 1023.99 1023.95 1023.91 1023.87 1023.83 1023.79 1023.75 1023.71 1023.63 1023.59 1023.55 1023.47 1023.43 1023.35 1023.31 1023.31 1023.31 1023.27 1023.23 1023.19 1023.15 1023.07 1023.03 1022.99 1022.91 1022.91 1022.87 1022.83 1022.75 1022.63 1022.59 1022.47 1022.43 1022.31 1022.23 1022.19 1022.15 1022.03 1021.95
1022.91 1022.95 1022.95 1022.99 1023.03 1023.03 1023.03 1023.19 1023.27 1023.31 1023.47 1023.55 1023.63 1023.67 1023.67 1023.71 1023.79 1023.87 1023.87 1023.91 1023.95 1024.03 1024.03 1024.07 1024.07 1024.07 1024.07 1024.03 1024.03 1023.99 1023.95 1023.91 1023.87 1023.87 1023.83 1023.79 1023.75 1023.67 1023.63 1023.63 1023.59 1023.51 1023.47 1023.39 1023.35 1023.31 1023.31 1023.27 1023.23 1023.19 1023.15 1023.07 1023.03 1022.95 1022.91 1022.87 1022.83 1022.79 1022.71 1022.59 1022.55 1022.47 1022.39 1022.27 1022.19 1022.07 1022.03 1021.95 1021.87
1022.99 1022.99 1023.03 1023.03 1023.07 1023.11 1023.19 1023.31 1023.39 1023.47 1023.55 1023.63 1023.71 1023.75 1023.75 1023.75 1023.83 1023.87 1023.87 1023.95 1024.03 1024.07 1024.03 1024.03 1024.03 1024.03 1024.03 1024.03 1023.99 1023.91 1023.87 1023.87 1023.87 1023.83 1023.79 1023.79 1023.71 1023.67 1023.59 1023.59 1023.55 1023.51 1023.47 1023.39 1023.35 1023.31 1023.27 1023.27 1023.23 1023.19 1023.15 1023.07 1022.99 1022.91 1022.87 1022.83 1022.79 1022.75 1022.67 1022.55 1022.47 1022.43 1022.31 1022.23 1022.11 1022.03 1021.95 1021.87 1021.75
1022.95 1023.03 1023.07 1023.07 1023.15 1023.19 1023.31 1023.43 1023.51 1023.59 1023.67 1023.75 1023.79 1023.83 1023.87 1023.87 1023.87 1023.87 1023.91 1024.03 1024.07 1024.07 1024.03 1024.03 1023.99 1023.99 1023.99 1023.99 1023.95 1023.91 1023.87 1023.87 1023.87 1023.83 1023.75 1023.75 1023.67 1023.63 1023.59 1023.59 1023.51 1023.47 1023.43 1023.35 1023.31 1023.27 1023.23 1023.23 1023.19 1023.19 1023.11 1023.03 1022.95 1022.87 1022.83 1022.75 1022.75 1022.67 1022.59 1022.51 1022.47 1022.39 1022.31 1022.19 1022.07 1021.95 1021.87 1021.79 1021.67
1022.99 1023.03 1023.11 1023.19 1023.23 1023.31 1023.43 1023.55 1023.59 1023.71 1023.75 1023.83 1023.87 1023.87 1023.87 1023.87 1023.87 1023.91 1023.99 1024.03 1024.03 1024.03 1024.03 1024.03 1023.91 1023.87 1023.91 1023.91 1023.91 1023.87 1023.87 1023.83 1023.79 1023.75 1023.75 1023.71 1023.63 1023.59 1023.59 1023.55 1023.47 1023.43 1023.35 1023.31 1023.23 1023.19 1023.19 1023.19 1023.15 1023.11 1023.07 1023.03 1022.91 1022.83 1022.75 1022.71 1022.63 1022.59 1022.55 1022.47 1022.43 1022.31 1022.23 1022.11 1021.99 1021.87 1021.79 1021.71 1021.59
1023.03 1023.11 1023.19 1023.23 1023.31 1023.43 1023.55 1023.63 1023.71 1023.75 1023.83 1023.87 1023.91 1023.91 1023.91 1023.91 1023.91 1023.91 1023.95 1023.99 1024.03 1024.03 1024.03 1024.03 1023.95 1023.87 1023.87 1023.87 1023.87 1023.87 1023.83 1023.79 1023.75 1023.75 1023.71 1023.67 1023.63 1023.59 1023.55 1023.51 1023.43 1023.35 1023.31 1023.23 1023.19 1023.15 1023.11 1023.11 1023.03 1023.03 1022.99 1022.95 1022.87 1022.75 1022.67 1022.59 1022.55 1022.51 1022.47 1022.39 1022.31 1022.23 1022.11 1021.99 1021.87 1021.79 1021.75 1021.63 1021.51
1023.15 1023.19 1023.27 1023.35 1023.43 1023.51 1023.63 1023.75 1023.75 1023.83 1023.87 1023.91 1023.91 1023.91 1023.91 1023.95 1023.91 1023.91 1023.91 1023.95 1024.03 1024.03 1024.03 1024.03 1024.03 1023.95 1023.87 1023.79 1023.75 1023.75 1023.75 1023.75 1023.71 1023.71 1023.71 1023.67 1023.59 1023.55 1023.51 1023.47 1023.39 1023.31 1023.23 1023.19 1023.15 1023.07 1023.03 1023.03 1022.95 1022.91 1022.91 1022.83 1022.75 1022.67 1022.59 1022.51 1022.47 1022.39 1022.31 1022.27 1022.19 1022.07 1021.99 1021.87 1021.75 1021.67 1021.59 1021.51 1021.43
1023.23 1023.27 1023.31 1023.43 1023.51 1023.59 1023.71 1023.79 1023.83 1023.87 1023.91 1023.95 1023.91 1023.95 1023.95 1023.95 1023.95 1023.91 1023.87 1023.91 1024.03 1024.03 1024.03 1023.99 1023.99 1023.95 1023.87 1023.79 1023.71 1023.67 1023.67 1023.67 1023.63 1023.63 1023.59 1023.59 1023.59 1023.51 1023.47 1023.39 1023.31 1023.23 1023.19 1023.15 1023.11 1023.03 1022.99 1022.91 1022.87 1022.79 1022.75 1022.71 1022.59 1022.55 1022.47 1022.39 1022.31 1022.27 1022.19 1022.11 1022.03 1021.91 1021.83 1021.71 1021.59 1021.51 1021.47 1021.35 1021.23
1023.31 1023.35 1023.43 1023.47 1023.59 1023.71 1023.75 1023.83 1023.87 1023.91 1023.95 1023.95 1023.95 1023.95 1023.91 1023.91 1023.95 1023.95 1023.87 1023.87 1023.95 1024.03 1024.03 1023.99 1023.95 1023.87 1023.87 1023.79 1023.71 1023.63 1023.59 1023.59 1023.59 1023.55 1023.51 1023.47 1023.47 1023.43 1023.35 1023.27 1023.19 1023.11 1023.07 1023.03 1023.03 1022.95 1022.91 1022.83 1022.75 1022.67 1022.59 1022.51 1022.47 1022.39 1022.31 1022.23 1022.19 1022.07 1021.99 1021.91 1021.83 1021.75 1021.63 1021.51 1021.43 1021.31 1021.23 1021.15 1021.03
1023.43 1023.47 1023.51 1023.59 1023.63 1023.75 1023.75 1023.79 1023.87 1023.91 1023.91 1023.91 1023.91 1023.87 1023.87 1023.87 1023.91 1023.95 1023.91 1023.91 1023.87 1023.91 1023.99 1023.99 1023.91 1023.87 1023.79 1023.75 1023.67 1023.59 1023.51 1023.51 1023.47 1023.47 1023.43 1023.39 1023.31 1023.27 1023.23 1023.19 1023.07 1023.03 1022.99 1022.95 1022.91 1022.83 1022.75 1022.71 1022.59 1022.55 1022.47 1022.39 1022.31 1022.19 1022.15 1022.03 1021.95 1021.87 1021.79 1021.71 1021.63 1021.55 1021.47 1021.35 1021.23 1021.11 1021.03 1020.91 1020.83
1023.47 1023.51 1023.55 1023.59 1023.63 1023.75 1023.75 1023.75 1023.79 1023.87 1023.87 1023.87 1023.87 1023.87 1023.87 1023.87 1023.87 1023.87 1023.87 1023.87 1023.83 1023.87 1023.87 1023.91 1023.87 1023.83 1023.75 1023.67 1023.59 1023.55 1023.47 1023.43 1023.43 1023.39 1023.31 1023.31 1023.23 1023.19 1023.15 1023.07 1023.03 1022.95 1022.91 1022.83 1022.75 1022.67 1022.59 1022.55 1022.47 1022.35 1022.31 1022.19 1022.15 1022.03 1021.95 1021.87 1021.75 1021.71 1021.59 1021.55 1021.47 1021.39 1021.27 1021.15 1021.03 1020.91 1020.83 1020.75 1020.67
1023.47 1023.51 1023.55 1023.59 1023.63 1023.71 1023.75 1023.75 1023.75 1023.79 1023.83 1023.83 1023.87 1023.87 1023.87 1023.87 1023.87 1023.83 1023.83 1023.79 1023.75 1023.83 1023.87 1023.83 1023.79 1023.75 1023.71 1023.59 1023.59 1023.51 1023.43 1023.35 1023.35 1023.31 1023.27 1023.23 1023.19 1023.07 1023.03 1022.95 1022.91 1022.87 1022.79 1022.71 1022.59 1022.51 1022.47 1022.39 1022.31 1022.19 1022.11 1022.03 1021.91 1021.83 1021.75 1021.67 1021.59 1021.51 1021.43 1021.35 1021.31 1021.19 1021.03 1020.91 1020.83 1020.75 1020.67 1020.59 1020.51
1023.47 1023.47 1023.51 1023.55 1023.59 1023.63 1023.67 1023.71 1023.75 1023.75 1023.75 1023.79 1023.83 1023.83 1023.83 1023.83 1023.79 1023.75 1023.75 1023.71 1023.75 1023.75 1023.75 1023.75 1023.71 1023.67 1023.59 1023.59 1023.51 1023.47 1023.39 1023.31 1023.27 1023.23 1023.19 1023.11 1023.07 1022.95 1022.87 1022.83 1022.79 1022.75 1022.71 1022.59 1022.47 1022.39 1022.27 1022.19 1022.07 1021.99 1021.87 1021.79 1021.67 1021.55 1021.47 1021.35 1021.31 1021.27 1021.23 1021.19 1021.11 1021.03 1020.87 1020.75 1020.63 1020.59 1020.51 1020.47 1020.39
1023.47 1023.47 1023.47 1023.51 1023.55 1023.59 1023.59 1023.67 1023.71 1023.75 1023.75 1023.79 1023.79 1023.79 1023.79 1023.79 1023.75 1023.71 1023.71 1023.71 1023.67 1023.71 1023.67 1023.63 1023.59 1023.55 1023.47 1023.47 1023.47 1023.39 1023.31 1023.27 1023.19 1023.15 1023.07 1023.03 1022.95 1022.91 1022.79 1022.75 1022.75 1022.67 1022.59 1022.47 1022.39 1022.31 1022.15 1022.03 1021.87 1021.75 1021.63 1021.51 1021.35 1021.23 1021.15 1021.11 1021.03 1021.07 1021.07 1021.03 1020.91 1020.83 1020.71 1020.59 1020.51 1020.47 1020.39 1020.31 1020.27
1023.43 1023.43 1023.43 1023.47 1023.51 1023.59 1023.59 1023.71 1023.75 1023.75 1023.79 1023.79 1023.79 1023.79 1023.75 1023.75 1023.71 1023.67 1023.67 1023.67 1023.63 1023.63 1023.59 1023.59 1023.51 1023.47 1023.43 1023.35 1023.35 1023.31 1023.31 1023.23 1023.19 1023.11 1022.99 1022.91 1022.87 1022.79 1022.75 1022.71 1022.63 1022.59 1022.47 1022.39 1022.23 1022.07 1021.87 1021.71 1021.59 1021.43 1021.31 1021.19 1021.03 1020.95 1020.91 1020.91 1020.91 1020.91 1020.87 1020.83 1020.71 1020.59 1020.55 1020.47 1020.43 1020.35 1020.31 1020.23 1020.15
1023.43 1023.43 1023.43 1023.47 1023.51 1023.59 1023.63 1023.71 1023.75 1023.75 1023.75 1023.75 1023.75 1023.75 1023.75 1023.75 1023.71 1023.71 1023.71 1023.67 1023.59 1023.59 1023.59 1023.55 1023.47 1023.43 1023.39 1023.31 1023.27 1023.19 1023.19 1023.15 1023.15 1023.07 1022.99 1022.87 1022.79 1022.75 1022.67 1022.59 1022.55 1022.47 1022.35 1022.19 1021.91 1021.67 1021.47 1021.35 1021.23 1021.11 1020.99 1020.91 1020.79 1020.75 1020.71 1020.75 1020.75 1020.71 1020.63 1020.59 1020.51 1020.43 1020.35 1020.31 1020.23 1020.19 1020.15 1020.11 1020.03
1023.47 1023.47 1023.47 1023.51 1023.55 1023.59 1023.63 1023.67 1023.71 1023.75 1023.75 1023.75 1023.75 1023.75 1023.75 1023.71 1023.71 1023.71 1023.71 1023.67 1023.59 1023.59 1023.55 1023.47 1023.47 1023.35 1023.27 1023.19 1023.19 1023.15 1023.11 1023.03 1023.03 1022.99 1022.95 1022.87 1022.75 1022.67 1022.59 1022.51 1022.43 1022.31 1022.23 1021.99 1021.71 1021.47 1021.31 1021.15 1021.03 1020.91 1020.75 1020.71 1020.59 1020.59 1020.55 1020.59 1020.59 1020.55 1020.47 1020.43 1020.35 1020.31 1020.27 1020.19 1020.07 1020.03 1019.95 1019.87 1019.83
1023.47 1023.47 1023.51 1023.55 1023.59 1023.59 1023.63 1023.67 1023.71 1023.75 1023.75 1023.75 1023.75 1023.75 1023.71 1023.71 1023.71 1023.71 1023.71 1023.67 1023.59 1023.55 1023.47 1023.43 1023.39 1023.31 1023.19 1023.19 1023.15 1023.11 1023.03 1022.99 1022.91 1022.87 1022.83 1022.75 1022.75 1022.63 1022.55 1022.43 1022.31 1022.19 1022.03 1021.75 1021.47 1021.27 1021.15 1021.03 1020.87 1020.71 1020.55 1020.47 1020.47 1020.47 1020.47 1020.43 1020.43 1020.39 1020.39 1020.31 1020.27 1020.23 1020.19 1020.15 1020.03 1019.95 1019.87 1019.75 1019.67
1023.47 1023.47 1023.51 1023.55 1023.59 1023.63 1023.67 1023.71 1023.75 1023.75 1023.75 1023.75 1023.71 1023.67 1023.67 1023.67 1023.71 1023.71 1023.71 1023.67 1023.59 1023.51 1023.47 1023.39 1023.27 1023.19 1023.19 1023.15 1023.11 1023.07 1022.99 1022.91 1022.83 1022.75 1022.75 1022.67 1022.59 1022.51 1022.43 1022.31 1022.19 1022.03 1021.83 1021.55 1021.31 1021.19 1021.03 1020.87 1020.71 1020.51 1020.39 1020.31 1020.31 1020.31 1020.31 1020.31 1020.31 1020.31 1020.31 1020.27 1020.23 1020.19 1020.15 1020.07 1019.99 1019.87 1019.75 1019.63 1019.55
1023.47 1023.51 1023.55 1023.59 1023.63 1023.67 1023.67 1023.71 1023.71 1023.71 1023.71 1023.67 1023.67 1023.67 1023.67 1023.67 1023.71 1023.71 1023.71 1023.63 1023.59 1023.51 1023.47 1023.35 1023.19 1023.15 1023.15 1023.15 1023.07 1022.99 1022.91 1022.83 1022.75 1022.67 1022.59 1022.55 1022.47 1022.39 1022.31 1022.15 1022.03 1021.87 1021.63 1021.43 1021.23 1021.03 1020.91 1020.75 1020.59 1020.39 1020.23 1020.15 1020.19 1020.19 1020.19 1020.19 1020.19 1020.19 1020.19 1020.19 1020.19 1020.15 1020.07 1020.03 1019.87 1019.79 1019.67 1019.55 1019.43
1023.47 1023.51 1023.55 1023.59 1023.63 1023.67 1023.67 1023.67 1023.67 1023.67 1023.67 1023.63 1023.63 1023.63 1023.67 1023.67 1023.71 1023.71 1023.63 1023.59 1023.55 1023.47 1023.35 1023.27 1023.19 1023.19 1023.15 1023.07 1023.03 1022.91 1022.87 1022.75 1022.63 1022.59 1022.51 1022.47 1022.39 1022.27 1022.11 1021.99 1021.87 1021.75 1021.51 1021.31 1021.11 1020.91 1020.75 1020.59 1020.39 1020.27 1020.11 1019.99 1019.95 1020.03 1020.03 1020.11 1020.11 1020.11 1020.11 1020.07 1020.03 1020.03 1019.95 1019.87 1019.75 1019.67 1019.59 1019.47 1019.31
1023.43 1023.47 1023.55 1023.59 1023.63 1023.67 1023.67 1023.63 1023.59 1023.59 1023.59 1023.59 1023.63 1023.63 1023.67 1023.71 1023.71 1023.67 1023.59 1023.55 1023.47 1023.31 1023.19 1023.15 1023.19 1023.15 1023.07 1023.03 1022.91 1022.87 1022.75 1022.67 1022.59 1022.47 1022.43 1022.39 1022.23 1022.11 1021.99 1021.87 1021.75 1021.59 1021.43 1021.19 1020.99 1020.79 1020.63 1020.47 1020.23 1020.07 1019.95 1019.87 1019.79 1019.83 1019.87 1019.99 1019.99 1020.03 1019.99 1019.99 1019.91 1019.87 1019.75 1019.71 1019.59 1019.51 1019.43 1019.31 1019.23
1023.39 1023.47 1023.51 1023.59 1023.63 1023.63 1023.63 1023.59 1023.59 1023.59 1023.59 1023.59 1023.63 1023.63 1023.67 1023.71 1023.63 1023.59 1023.51 1023.39 1023.31 1023.23 1023.19 1023.15 1023.15 1023.11 1023.03 1022.91 1022.83 1022.75 1022.67 1022.59 1022.47 1022.39 1022.31 1022.19 1022.11 1022.03 1021.87 1021.75 1021.67 1021.51 1021.31 1021.03 1020.83 1020.63 1020.47 1020.27 1020.11 1019.95 1019.79 1019.67 1019.67 1019.71 1019.75 1019.83 1019.87 1019.87 1019.83 1019.79 1019.75 1019.67 1019.59 1019.51 1019.47 1019.35 1019.27 1019.19 1019.07
1023.35 1023.43 1023.51 1023.59 1023.59 1023.59 1023.59 1023.59 1023.55 1023.55 1023.55 1023.59 1023.63 1023.63 1023.63 1023.63 1023.55 1023.51 1023.43 1023.31 1023.23 1023.19 1023.19 1023.11 1023.07 1023.03 1022.95 1022.83 1022.75 1022.63 1022.55 1022.47 1022.31 1022.19 1022.07 1022.03 1021.95 1021.87 1021.75 1021.59 1021.51 1021.35 1021.15 1020.91 1020.71 1020.51 1020.35 1020.19 1020.03 1019.87 1019.71 1019.55 1019.55 1019.59 1019.67 1019.75 1019.75 1019.71 1019.67 1019.59 1019.55 1019.47 1019.39 1019.35 1019.31 1019.19 1019.11 1019.03 1018.91
1023.35 1023.43 1023.47 1023.55 1023.55 1023.59 1023.55 1023.55 1023.55 1023.55 1023.55 1023.59 1023.59 1023.59 1023.59 1023.59 1023.51 1023.47 1023.31 1023.19 1023.15 1023.07 1023.03 1022.99 1022.91 1022.87 1022.79 1022.75 1022.63 1022.55 1022.47 1022.31 1022.19 1022.11 1022.03 1021.95 1021.87 1021.79 1021.67 1021.51 1021.39 1021.19 1020.99 1020.75 1020.59 1020.43 1020.31 1020.15 1019.99 1019.83 1019.63 1019.47 1019.47 1019.55 1019.59 1019.63 1019.67 1019.63 1019.55 1019.47 1019.39 1019.31 1019.19 1019.19 1019.11 1019.03 1018.95 1018.87 1018.75
1023.31 1023.39 1023.47 1023.51 1023.51 1023.51 1023.55 1023.51 1023.51 1023.51 1023.55 1023.59 1023.59 1023.55 1023.51 1023.47 1023.47 1023.35 1023.23 1023.07 1022.99 1022.99 1022.95 1022.87 1022.79 1022.75 1022.63 1022.59 1022.51 1022.43 1022.31 1022.19 1022.11 1022.03 1021.91 1021.87 1021.75 1021.67 1021.55 1021.39 1021.23 1021.03 1020.87 1020.67 1020.51 1020.35 1020.23 1020.11 1019.95 1019.79 1019.59 1019.47 1019.47 1019.51 1019.59 1019.59 1019.59 1019.51 1019.47 1019.35 1019.27 1019.19 1019.07 1019.03 1018.95 1018.87 1018.75 1018.71 1018.59
1023.27 1023.31 1023.43 1023.47 1023.47 1023.47 1023.51 1023.51 1023.51 1023.51 1023.55 1023.59 1023.59 1023.55 1023.47 1023.39 1023.31 1023.23 1023.11 1022.91 1022.91 1022.91 1022.91 1022.79 1022.75 1022.67 1022.59 1022.47 1022.39 1022.31 1022.19 1022.11 1022.03 1021.91 1021.79 1021.71 1021.63 1021.55 1021.43 1021.27 1021.15 1020.99 1020.79 1020.59 1020.47 1020.31 1020.19 1020.07 1019.91 1019.75 1019.51 1019.47 1019.47 1019.51 1019.55 1019.51 1019.51 1019.47 1019.35 1019.27 1019.19 1019.03 1018.95 1018.91 1018.79 1018.71 1018.59 1018.47 1018.35
1023.19 1023.27 1023.35 1023.43 1023.47 1023.47 1023.47 1023.47 1023.51 1023.51 1023.55 1023.55 1023.51 1023.47 1023.43 1023.31 1023.23 1023.15 1023.03 1022.91 1022.91 1022.91 1022.83 1022.71 1022.67 1022.59 1022.51 1022.43 1022.31 1022.19 1022.07 1021.99 1021.91 1021.83 1021.71 1021.59 1021.47 1021.39 1021.31 1021.19 1021.11 1020.99 1020.79 1020.59 1020.43 1020.31 1020.19 1020.03 1019.87 1019.63 1019.47 1019.43 1019.47 1019.51 1019.47 1019.47 1019.47 1019.35 1019.31 1019.19 1019.07 1018.95 1018.87 1018.75 1018.63 1018.55 1018.39 1018.27 1018.15
1023.11 1023.19 1023.23 1023.31 1023.39 1023.43 1023.47 1023.47 1023.47 1023.47 1023.47 1023.47 1023.43 1023.35 1023.31 1023.19 1023.15 1023.03 1022.91 1022.79 1022.83 1022.83 1022.75 1022.67 1022.59 1022.51 1022.39 1022.27 1022.19 1022.07 1021.95 1021.83 1021.79 1021.71 1021.59 1021.47 1021.39 1021.27 1021.19 1021.11 1021.03 1020.95 1020.75 1020.59 1020.43 1020.27 1020.15 1019.99 1019.75 1019.55 1019.39 1019.47 1019.47 1019.47 1019.43 1019.43 1019.31 1019.27 1019.19 1019.07 1018.99 1018.87 1018.75 1018.59 1018.47 1018.35 1018.23 1018.11 1017.91
1023.03 1023.07 1023.15 1023.23 1023.31 1023.31 1023.39 1023.43 1023.43 1023.43 1023.39 1023.35 1023.31 1023.23 1023.19 1023.11 1023.03 1022.91 1022.79 1022.67 1022.75 1022.75 1022.71 1022.59 1022.51 1022.39 1022.19 1022.07 1022.03 1021.91 1021.83 1021.71 1021.63 1021.59 1021.47 1021.39 1021.27 1021.11 1021.03 1020.99 1020.99 1020.91 1020.75 1020.51 1020.35 1020.23 1020.07 1019.91 1019.71 1019.47 1019.31 1019.39 1019.39 1019.35 1019.31 1019.27 1019.19 1019.15 1019.07 1018.99 1018.87 1018.75 1018.59 1018.47 1018.35 1018.23 1018.11 1017.91 1017.75
1022.95 1022.99 1023.03 1023.15 1023.19 1023.27 1023.31 1023.31 1023.31 1023.31 1023.27 1023.23 1023.19 1023.15 1023.07 1022.99 1022.91 1022.75 1022.67 1022.63 1022.59 1022.59 1022.59 1022.51 1022.39 1022.23 1022.11 1021.95 1021.87 1021.87 1021.75 1021.63 1021.55 1021.47 1021.35 1021.23 1021.11 1020.95 1020.91 1020.95 1020.91 1020.87 1020.71 1020.47 1020.31 1020.15 1019.99 1019.87 1019.63 1019.43 1019.31 1019.31 1019.31 1019.27 1019.23 1019.19 1019.15 1019.03 1018.95 1018.87 1018.75 1018.59 1018.47 1018.31 1018.23 1018.11 1017.95 1017.79 1017.59
1022.91 1022.91 1022.99 1023.03 1023.11 1023.19 1023.19 1023.19 1023.19 1023.19 1023.15 1023.11 1023.07 1023.03 1022.91 1022.79 1022.75 1022.71 1022.63 1022.59 1022.55 1022.51 1022.43 1022.35 1022.27 1022.19 1022.03 1021.87 1021.83 1021.79 1021.71 1021.59 1021.47 1021.35 1021.23 1021.11 1021.03 1020.95 1020.91 1020.95 1020.91 1020.79 1020.63 1020.47 1020.27 1020.07 1019.91 1019.75 1019.59 1019.47 1019.31 1019.31 1019.27 1019.23 1019.23 1019.19 1019.11 1019.03 1018.91 1018.75 1018.59 1018.47 1018.31 1018.19 1018.07 1017.91 1017.79 1017.67 1017.55
Wind_Speed
6 5 5 5 5 4 4 4 4 4 3 3 3 2 2 3 2 2 1 1 1 1 1 1 1 1 1 1 1 2 2 2 3 3 3 3 3 3 4 4 3 3 4 4 4 3 3 3 3 2 2 2 2 2 2 2 2 2 3 3 3 3 3 4 4 4 4 4 4
6 5 5 5 5 5 4 4 4 3 3 2 2 2 2 2 2 2 1 1 1 1 1 0 0 0 1 1 1 1 2 2 2 3 3 3 3 3 3 3 3 3 3 3 3 3 3 3 3 3 3 2 2 3 3 3 2 2 3 4 3 3 3 3 4 4 4 4 3
4 4 4 4 5 4 4 3 3 3 3 2 2 2 2 2 2 2 1 0 0 0 0 0 1 1 1 2 1 1 1 1 2 2 3 3 4 4 4 3 4 4 4 3 3 3 3 3 3 3 3 3 3 3 3 3 2 2 3 3 3 3 3 3 4 4 3 3 3
4 4 4 4 5 5 4 3 3 3 2 2 2 2 2 2 1 1 1 1 1 1 1 0 1 1 1 2 2 2 2 2 2 2 3 3 4 4 4 4 4 4 4 4 4 4 3 3 3 3 3 3 3 3 3 3 3 2 2 3 2 3 3 3 3 3 3 3 3
5 4 4 4 4 4 3 3 3 2 2 2 2 2 2 2 2 1 1 2 1 1 1 0 1 1 1 2 2 3 3 3 3 3 3 3 4 4 4 4 4 4 4 4 4 4 4 3 3 2 2 2 2 3 3 3 3 2 2 2 2 2 3 3 3 3 3 3 3
4 4 4 4 4 4 3 2 3 2 2 2 3 3 2 2 2 2 2 1 1 0 1 1 1 2 2 2 3 3 3 3 3 3 3 3 4 4 4 4 4 4 4 4 4 4 4 3 3 3 3 2 2 3 3 2 2 3 3 3 3 3 3 3 3 3 4 4 4
4 5 5 5 5 4 4 3 3 2 2 3 3 3 3 2 2 2 2 1 1 1 1 1 2 2 2 2 3 3 3 3 3 3 3 3 4 4 4 4 4 4 4 4 4 4 4 3 3 3 3 3 3 3 3 2 3 3 4 4 4 3 3 4 3 3 4 5 5
5 5 5 5 5 4 4 3 3 3 3 3 3 3 2 2 2 2 1 1 1 1 1 1 1 1 2 2 2 3 3 3 3 3 3 3 4 4 4 4 5 5 5 4 4 4 4 3 2 3 3 3 3 3 3 3 3 4 4 5 4 4 3 3 3 3 4 5 5
4 4 4 4 4 4 3 3 3 3 3 3 2 2 2 2 2 2 2 1 1 1 1 1 1 1 1 1 2 2 3 3 3 4 4 3 4 4 4 4 5 5 5 4 4 4 3 3 2 2 2 2 3 3 4 4 4 4 4 4 5 4 4 4 4 4 4 4 5
4 3 4 4 3 3 3 3 3 3 3 2 2 2 2 2 2 2 1 0 0 1 1 1 1 1 2 2 2 3 3 3 3 3 4 4 4 4 4 4 5 5 5 5 4 3 3 2 2 3 3 2 3 4 4 4 4 5 5 4 4 5 5 5 4 4 4 4 5
3 3 3 3 3 3 3 3 3 3 3 2 2 2 2 2 2 1 1 1 1 1 1 1 1 1 2 2 2 3 3 3 3 3 3 4 4 5 5 5 5 5 5 5 3 3 2 2 3 3 4 3 3 4 4 4 4 5 5 5 5 5 6 6 5 5 5 5 6
3 3 3 2 2 3 3 3 3 3 3 2 2 2 2 1 1 1 1 2 2 1 2 1 1 1 2 2 2 3 3 2 3 3 3 4 4 5 5 5 4 4 5 4 3 2 2 2 3 4 4 4 4 4 4 5 5 5 6 5 5 5 6 6 6 6 5 5 6
3 3 2 2 3 3 3 3 2 2 2 2 2 1 1 1 1 1 1 2 1 1 2 1 1 1 1 2 2 2 2 2 3 3 4 4 4 4 4 4 4 4 4 4 3 2 2 3 3 4 5 5 5 4 5 5 5 5 6 6 6 6 6 7 7 6 6 6 6
3 3 2 2 3 3 3 3 2 2 2 2 1 1 1 1 0 1 1 1 0 1 2 2 2 1 2 2 2 2 2 3 3 3 4 4 4 4 4 4 4 4 4 4 3 3 3 3 3 4 4 5 5 5 5 5 4 5 5 5 6 6 7 7 7 7 7 7 7
3 2 2 2 3 3 3 2 2 2 1 1 1 1 0 1 0 0 1 0 1 1 1 1 2 2 2 2 2 2 2 3 3 3 4 4 4 4 4 4 4 4 4 4 3 3 3 3 3 4 4 5 5 5 5 5 4 4 4 5 5 6 6 7 7 7 7 7 7
2 2 2 3 3 3 2 2 1 1 1 0 1 1 1 1 0 0 0 0 1 1 1 1 2 2 2 2 2 2 2 3 3 3 4 4 4 4 4 4 5 5 4 4 4 3 3 3 3 3 3 4 5 5 5 5 4 4 4 4 5 5 6 7 7 7 7 7 7
2 2 2 3 3 2 2 1 1 0 0 0 1 1 1 1 0 0 0 1 1 1 1 2 2 2 2 3 3 2 2 3 3 3 4 4 4 4 5 5 5 5 4 4 4 4 4 4 3 3 3 4 5 5 5 5 4 4 5 5 5 5 6 7 7 7 7 8 8
2 2 2 3 3 2 2 1 0 0 0 1 1 1 1 1 1 1 1 1 1 1 1 3 2 2 2 3 3 3 3 3 3 4 4 4 4 4 5 5 5 4 4 3 3 4 4 4 4 4 4 4 5 5 5 5 5 5 5 5 5 6 7 8 8 8 8 8 8
2 2 2 2 2 2 2 1 1 1 1 1 1 1 1 1 1 1 1 1 1 1 1 2 3 3 3 3 4 3 3 3 3 4 4 4 4 4 4 5 4 4 3 3 3 3 4 4 5 5 5 5 6 6 6 6 6 5 5 5 6 6 7 8 8 8 8 8 9
1 2 2 2 2 2 2 1 1 2 2 2 1 1 1 1 1 1 1 1 1 1 1 2 3 3 4 4 4 4 3 3 3 3 4 4 4 4 4 4 4 4 3 3 3 4 4 5 5 6 6 7 7 7 7 7 6 6 6 5 6 7 8 9 9 9 9 9 9
1 2 2 2 2 2 2 2 2 2 2 1 1 1 1 1 1 1 1 2 1 1 1 2 3 4 4 5 5 4 4 3 3 3 3 3 4 4 4 4 4 3 3 3 3 4 4 5 6 7 7 8 8 8 8 7 6 6 6 6 6 8 9 10 9 9 9 9 8
2 2 2 2 2 2 2 2 2 1 1 1 1 1 1 1 1 2 2 1 1 1 2 3 3 4 4 4 4 4 3 3 3 3 3 3 4 4 4 3 3 3 4 4 4 5 5 6 7 7 8 8 8 8 8 7 7 6 6 6 7 9 9 10 10 9 9 8 7
2 2 2 2 2 2 2 1 1 1 1 1 1 1 1 1 1 1 1 1 1 2 2 3 3 4 4 4 3 3 3 3 3 3 3 3 4 4 4 3 3 4 4 4 4 5 5 6 7 7 8 8 8 8 8 7 6 6 6 7 8 9 9 10 9 9 8 7 7
2 2 2 1 2 2 1 1 0 0 1 1 1 1 1 1 1 1 1 1 2 2 3 3 3 3 3 3 3 2 2 3 4 4 4 5 4 4 4 4 4 4 4 4 5 7 7 7 7 7 7 7 7 7 6 6 6 6 6 7 8 8 8 9 9 9 8 7 7
1 2 1 1 1 1 1 1 0 1 1 1 1 1 1 1 1 1 1 2 2 3 3 3 3 3 3 2 2 2 3 3 4 4 5 5 5 5 4 4 4 4 4 5 10 14 16 14 11 9 7 7 7 6 6 5 5 6 6 7 7 7 7 8 8 7 7 6 6
1 1 1 1 1 1 1 1 1 1 1 1 1 1 1 1 1 1 1 2 3 3 3 3 3 3 3 2 3 3 3 3 4 4 5 5 6 5 5 4 4 4 4 7 13 17 19 19 18 14 11 8 7 6 5 5 5 5 6 6 5 6 6 7 7 6 6 6 6
1 1 1 1 1 1 1 1 1 1 1 1 1 1 1 1 1 1 1 2 3 3 3 3 3 3 3 3 3 4 4 4 4 4 4 5 5 5 4 4 4 4 5 11 16 19 19 19 19 18 15 10 7 6 5 5 5 4 4 4 5 5 6 6 7 7 7 7 7
1 1 1 1 1 0 1 0 0 0 1 1 1 1 1 1 1 1 2 2 3 3 3 3 3 3 2 2 3 4 4 4 4 4 4 4 4 4 4 4 4 5 8 14 18 19 19 19 19 19 18 14 8 5 4 4 4 4 4 4 4 5 5 6 6 7 7 8 8
1 1 1 1 1 0 0 0 0 1 1 1 1 0 1 1 1 2 2 2 3 3 3 3 3 2 2 3 3 4 4 4 4 3 3 3 4 4 4 4 5 7 11 17 19 19 19 19 19 19 19 17 10 5 3 3 2 3 3 3 4 5 5 6 6 7 7 8 8
1 2 2 1 1 1 1 1 1 1 1 1 0 1 1 2 2 2 2 3 3 3 3 3 2 3 3 4 3 3 4 4 4 3 3 4 4 4 5 5 5 7 10 16 18 19 19 19 19 19 19 19 13 7 3 2 2 2 3 3 4 5 6 7 7 7 8 8 8
2 2 2 1 1 1 1 1 1 1 0 0 1 1 2 2 2 2 2 2 3 3 3 3 3 3 4 4 3 3 4 4 4 4 4 4 5 5 5 5 5 7 10 16 18 19 19 19 19 19 19 19 14 8 4 2 2 2 3 4 5 6 6 7 7 7 8 8 9
2 2 2 1 1 1 1 1 1 0 0 1 1 1 1 2 2 3 3 3 3 3 3 3 3 4 4 4 3 4 4 4 5 5 5 5 5 5 5 5 5 7 10 16 18 19 19 19 19 20 20 19 14 8 4 2 2 2 3 4 5 6 7 6 7 7 8 9 9
2 2 2 2 1 1 1 1 0 0 1 1 1 1 2 2 3 3 3 3 3 3 3 3 3 4 4 4 4 4 5 5 5 6 6 6 5 5 5 5 5 7 11 16 18 18 19 19 20 20 20 20 13 7 3 1 2 2 3 4 5 6 7 7 7 8 8 9 9
2 2 2 2 1 1 1 0 0 1 1 1 1 2 2 2 3 3 3 3 3 2 2 3 3 3 3 3 3 4 5 5 5 5 5 6 5 5 5 5 5 8 12 16 17 18 19 20 20 20 20 19 12 6 3 2 2 3 4 5 6 6 7 7 7 8 8 8 8
2 2 2 1 1 1 0 0 1 1 1 1 2 2 3 2 3 3 3 3 3 3 2 3 3 3 3 3 3 4 4 5 5 6 6 5 5 5 5 5 5 8 12 15 17 18 19 20 20 20 19 16 9 5 3 3 3 4 5 6 6 7 7 8 7 7 8 8 8
2 2 2 1 1 0 0 0 1 1 1 2 2 3 3 3 3 3 3 3 3 3 3 3 3 3 3 3 4 4 4 5 5 6 6 6 5 5 5 6 5 8 11 14 16 17 19 19 20 20 18 13 7 5 4 3 3 4 5 6 6 7 8 8 8 8 8 8 8
3 3 2 2 1 0 0 0 0 1 1 2 3 3 3 3 3 3 3 3 3 3 3 3 3 3 4 4 4 5 5 5 5 6 6 6 6 6 6 6 5 6 9 13 15 17 18 19 19 19 16 10 6 5 4 3 3 4 5 5 6 7 7 7 7 8 8 8 9
3 3 3 2 1 1 1 1 0 1 2 3 3 3 2 2 3 3 3 3 3 3 3 3 4 4 4 5 5 5 6 5 5 5 6 6 6 6 6 5 4 4 7 12 15 17 18 18 19 18 15 9 6 4 4 3 3 3 4 5 5 6 7 7 6 7 8 9 13
2 3 2 2 2 1 1 1 1 2 2 3 3 3 2 2 2 3 3 3 2 3 3 3 4 5 6 6 6 6 5 6 5 5 6 6 7 7 6 3 3 4 6 11 14 16 17 18 18 18 15 9 6 4 3 3 4 4 4 5 5 6 7 7 6 6 7 10 14
2 2 2 2 2 2 2 2 2 3 3 2 3 3 3 3 3 3 3 3 3 3 3 4 5 6 6 7 7 6 6 6 5 5 6 6 7 8 7 3 3 4 6 10 14 16 17 18 18 18 16 10 6 5 4 4 4 5 5 5 5 6 6 6 6 6 6 8 11
2 2 2 2 2 2 2 2 3 3 3 2 3 3 3 3 3 3 3 3 3 3 3 4 5 6 7 7 6 6 6 6 6 6 6 6 6 6 5 2 3 4 5 8 13 15 17 17 18 18 16 12 8 6 5 4 5 6 6 6 6 6 6 6 5 5 6 6 6
Wind_Direction
89 92 94 96 95 94 93 90 89 89 90 91 92 91 91 90 88 86 87 99 114 150 196 207 216 246 281 327 13 14 8 359 356 352 346 339 328 322 320 320 323 324 325 326 327 329 332 335 336 333 327 318 314 306 300 296 303 306 307 306 301 299 299 298 296 295 296 297 296
95 97 98 98 96 94 90 87 81 79 80 88 99 104 104 101 102 102 103 118 152 178 197 192 284 327 328 346 12 19 14 358 349 343 336 328 318 314 315 317 319 322 324 325 326 326 328 330 332 328 322 316 318 311 303 295 301 306 305 300 295 294 296 296 291 289 290 293 296
95 94 94 95 95 94 93 91 88 87 88 93 99 104 107 109 113 116 120 137 127 69 43 34 19 6 356 348 355 6 8 353 342 335 327 319 315 315 316 319 321 323 324 324 323 322 320 322 323 320 316 313 313 308 301 296 301 303 299 291 290 292 296 294 291 290 291 294 296
89 91 94 96 99 103 107 111 110 112 112 107 88 83 83 86 91 96 96 75 45 34 25 17 14 17 15 3 354 348 343 339 335 329 320 316 315 314 317 321 324 323 322 321 320 319 316 317 318 316 312 308 304 298 293 292 301 299 294 286 290 293 294 294 292 292 294 294 291
83 88 94 99 102 105 111 115 117 117 109 86 72 63 58 62 72 75 68 55 45 33 9 347 8 14 12 9 356 344 335 330 330 327 321 318 315 316 319 325 322 319 317 318 317 316 316 317 318 313 306 299 292 286 283 287 300 301 297 297 299 297 296 295 294 294 295 294 292
83 81 82 86 90 90 91 95 101 99 90 79 77 72 66 64 70 68 65 58 46 17 358 16 19 12 6 1 353 342 333 327 327 327 325 319 318 320 323 323 319 317 317 317 316 315 316 320 319 314 307 302 295 288 287 294 305 309 307 307 303 302 301 298 295 296 297 298 297
85 79 75 72 73 71 70 72 80 83 81 78 79 78 76 70 67 67 68 65 26 8 9 18 16 9 1 355 345 335 328 324 323 324 325 322 321 321 320 318 318 318 316 314 316 316 317 320 319 314 309 309 305 301 301 309 315 316 314 309 305 303 302 297 297 299 301 300 297
79 76 73 69 66 64 61 59 62 64 65 67 75 80 83 78 73 68 58 42 27 11 1 6 10 5 357 350 336 327 322 323 323 323 322 323 322 319 318 318 319 316 314 312 314 315 316 317 318 314 311 312 311 308 309 315 321 320 314 308 305 304 303 300 302 303 303 300 299
71 68 66 63 61 60 59 58 60 62 65 65 73 84 90 87 81 72 60 42 18 349 346 2 2 1 357 346 328 321 319 321 320 319 319 321 320 319 318 318 318 316 313 312 313 315 316 320 319 313 307 309 310 309 311 318 322 320 314 308 307 307 306 304 305 306 304 302 300
75 69 64 60 55 54 56 57 59 63 66 66 63 68 76 79 80 80 81 87 5 355 356 350 353 354 348 335 324 317 314 314 315 316 317 317 317 316 314 314 314 314 313 312 314 318 320 324 321 315 311 311 311 311 312 319 321 318 314 309 310 310 309 307 307 306 306 303 300
87 83 78 74 64 58 55 52 52 55 57 56 46 46 54 63 70 78 89 81 37 7 343 310 334 342 335 321 313 310 308 308 312 314 315 314 312 311 309 309 310 310 310 309 311 317 324 325 320 317 314 312 312 313 315 318 319 316 312 308 310 310 309 307 306 305 304 301 300
97 92 86 81 72 65 58 52 48 48 49 48 40 37 40 50 63 70 66 59 32 351 308 284 295 316 315 308 304 304 305 306 309 311 312 310 309 309 309 308 309 309 308 307 309 315 322 321 318 317 315 313 313 314 315 315 315 312 310 308 309 308 307 304 303 302 300 300 299
102 94 83 73 67 65 63 55 48 46 45 42 33 27 23 24 59 75 71 60 21 322 293 286 292 296 298 295 296 298 302 302 306 309 309 307 306 308 308 308 308 308 306 304 306 311 318 315 313 313 312 311 310 310 310 310 309 308 306 306 306 305 303 301 300 299 299 299 297
99 93 85 73 68 68 67 61 52 47 43 35 20 2 353 342 29 77 85 76 318 286 285 294 300 296 286 281 285 290 294 298 305 308 308 306 305 306 306 305 304 304 304 303 304 308 310 307 305 306 306 307 306 305 304 303 302 301 299 300 301 301 299 299 299 299 299 299 296
97 93 85 77 73 72 72 70 63 55 45 26 345 318 317 322 346 66 83 82 261 267 281 303 302 296 287 278 277 284 292 299 305 306 306 305 304 303 302 301 301 301 302 302 303 304 302 297 296 297 300 301 300 300 299 298 295 293 291 292 293 295 297 298 299 299 298 296 295
102 93 82 77 76 75 75 76 77 72 59 350 301 297 295 290 293 14 14 279 275 286 298 301 294 294 294 291 285 287 295 301 302 302 300 299 298 298 298 298 297 297 298 300 301 301 297 291 289 291 293 295 295 295 294 292 289 286 285 284 287 290 293 295 296 296 295 293 292
104 93 83 83 85 85 84 84 85 91 93 272 277 271 262 258 262 264 261 257 277 302 304 292 284 288 294 296 293 292 294 296 293 291 289 287 288 290 291 292 290 290 292 295 297 297 296 293 291 290 291 291 290 288 286 283 281 278 277 278 282 286 289 291 291 291 291 290 289
99 92 88 91 96 99 100 100 103 172 229 245 253 251 245 235 234 244 249 246 236 271 288 289 283 284 287 291 291 289 287 284 282 280 278 278 279 282 285 286 285 285 286 286 288 290 291 292 292 293 293 291 288 284 280 275 272 270 271 273 278 282 284 285 285 285 285 286 287
104 101 101 106 114 118 121 128 168 212 227 231 236 240 240 228 216 234 267 274 244 242 263 284 289 289 288 287 287 286 283 276 275 275 276 276 279 282 283 284 284 283 281 278 279 282 286 291 293 293 293 291 287 282 278 272 269 267 267 270 275 279 280 280 280 280 281 282 284
120 123 127 132 134 138 148 167 193 211 222 225 229 237 240 233 208 215 265 277 263 248 254 280 290 292 292 289 289 288 284 277 274 275 278 282 285 286 283 281 280 278 276 274 277 282 287 290 291 291 289 287 284 280 276 272 269 267 268 271 274 276 276 276 276 277 278 278 280
151 153 153 152 150 156 169 188 199 209 216 225 227 231 233 234 221 221 236 252 255 259 271 285 288 289 289 289 289 286 282 279 275 276 279 284 286 284 280 275 273 274 275 277 281 284 286 287 286 285 283 281 279 275 272 269 267 268 270 273 274 273 272 272 274 275 276 277 279
186 176 168 160 159 164 176 195 200 208 219 230 229 228 229 232 233 234 235 239 253 274 283 283 282 281 281 280 279 278 278 282 281 281 283 285 285 282 279 274 274 278 282 283 284 284 283 282 280 278 276 276 273 271 269 268 270 271 272 272 271 271 272 273 273 274 274 275 277
198 186 175 163 158 159 171 191 198 215 232 245 240 235 234 238 245 248 253 261 280 285 283 280 277 275 272 269 267 270 279 293 298 297 295 293 290 287 285 281 282 283 282 280 278 278 278 278 276 274 272 271 270 270 270 271 273 272 270 268 269 271 274 277 278 278 277 275 276
194 182 170 152 148 152 160 168 183 235 253 252 246 240 240 249 263 276 290 300 293 288 284 283 280 275 271 268 267 274 289 303 305 305 302 299 296 294 292 290 286 281 277 273 283 291 295 293 286 280 277 276 277 277 277 276 270 265 262 263 268 274 279 285 286 285 283 280 279
185 164 150 139 139 141 143 151 204 240 248 249 243 242 248 262 280 294 305 305 297 292 289 288 286 283 280 283 286 292 298 301 301 301 301 301 300 299 297 295 288 281 276 276 299 307 311 312 309 303 296 292 292 293 291 285 271 263 260 262 270 278 287 292 292 288 282 276 274
165 149 143 145 137 136 152 190 216 231 240 247 252 260 268 268 276 294 304 302 295 291 288 288 288 292 296 300 304 306 304 300 297 296 297 299 301 302 300 295 289 281 282 294 310 315 317 316 314 311 307 302 302 302 301 294 279 270 268 271 280 290 296 298 296 290 282 276 273
140 140 145 142 126 141 182 210 213 226 238 249 265 271 274 271 290 313 309 299 292 290 289 291 291 297 302 304 307 306 301 298 296 295 294 294 297 297 296 292 287 282 293 308 316 318 319 318 315 313 311 306 307 307 307 303 297 292 291 298 304 304 301 297 295 294 292 288 284
141 144 135 112 113 155 206 210 205 229 246 246 249 259 269 299 326 323 309 297 296 298 300 297 293 295 302 306 301 298 295 295 294 294 293 293 292 290 287 286 283 290 303 315 320 321 320 318 316 314 312 311 310 311 311 311 314 318 320 319 311 302 295 292 293 295 296 295 293
159 144 128 113 132 192 234 219 214 227 232 232 237 263 324 350 337 321 311 305 306 304 300 292 295 301 307 305 297 295 295 294 293 294 295 299 296 291 287 286 284 296 308 318 320 321 319 317 315 314 313 314 314 315 318 319 322 320 316 308 299 294 292 292 294 296 297 297 296
164 147 133 132 157 200 231 226 223 223 225 219 245 12 6 352 334 319 307 300 294 288 284 284 297 304 301 294 295 297 296 293 294 296 299 299 297 294 291 291 289 297 308 317 319 320 319 317 315 314 314 315 314 315 317 321 314 306 300 296 293 291 290 291 293 294 294 295 296
164 148 139 137 163 213 232 232 227 222 207 74 38 20 1 339 315 298 285 278 277 279 284 292 301 299 294 290 293 295 295 295 297 297 296 293 292 291 290 291 289 296 306 315 318 319 318 317 317 316 316 316 316 318 322 322 307 294 289 288 287 287 288 289 290 290 290 291 293
160 145 139 141 178 221 237 238 230 211 76 49 28 6 335 307 284 273 266 265 276 287 296 304 303 300 298 298 298 297 297 297 297 295 292 289 289 289 290 291 289 294 304 314 318 319 320 320 320 319 319 319 318 321 327 312 281 270 272 276 279 280 282 284 286 286 287 288 290
147 137 133 140 178 222 239 239 224 72 53 37 12 335 306 289 282 279 279 277 280 285 291 293 294 294 295 296 297 298 297 296 294 293 292 290 288 289 291 293 290 296 305 315 319 321 323 323 324 323 322 321 321 324 329 289 262 261 268 273 275 276 277 278 280 282 284 286 288
138 132 131 138 172 211 234 247 62 54 40 16 337 310 293 286 290 291 289 285 280 277 276 276 276 276 278 281 287 291 293 295 294 294 292 290 289 291 292 292 289 298 307 316 321 324 326 327 326 324 322 321 322 324 323 288 273 272 274 275 277 279 280 280 280 282 283 285 286
144 135 135 149 172 195 211 23 48 44 26 351 315 300 290 281 281 280 279 281 284 285 281 278 274 275 278 282 283 288 293 295 295 293 292 290 291 293 294 293 289 301 310 319 324 326 328 328 326 323 321 321 324 326 321 300 288 280 277 278 282 284 286 286 286 285 285 284 284
149 140 137 147 163 176 159 92 51 29 359 319 300 292 287 281 272 269 272 282 291 294 292 289 291 293 294 293 292 291 292 291 292 293 293 293 295 296 295 294 292 305 317 325 328 330 330 328 324 322 320 323 328 330 323 308 292 281 279 281 286 289 290 290 290 289 288 287 285
151 143 138 140 149 170 184 138 66 358 312 288 280 277 276 276 274 272 276 288 296 297 294 292 295 294 292 290 290 288 287 285 289 292 294 296 296 296 295 295 294 311 325 333 333 333 331 328 323 321 321 326 331 331 323 308 292 284 284 288 292 292 292 292 292 291 291 290 291
154 143 138 141 155 182 195 172 174 261 269 267 263 262 262 267 274 277 280 290 292 292 292 292 292 289 285 284 286 287 286 285 287 290 294 296 295 296 296 298 298 316 331 337 336 334 332 328 322 321 324 331 334 331 321 308 298 294 296 299 299 297 295 294 294 293 292 291 296
155 148 146 153 170 183 191 193 218 236 245 252 258 263 267 270 274 278 282 286 281 281 284 287 286 285 285 288 292 294 295 293 291 291 292 293 295 301 306 313 311 320 330 337 337 335 331 327 321 322 326 333 335 331 323 317 313 310 308 307 305 302 298 295 293 292 290 289 298
160 153 150 160 174 182 191 209 226 231 232 238 254 264 269 270 274 279 283 284 279 277 279 282 284 285 288 295 299 301 302 300 297 293 292 294 300 311 321 333 321 316 323 331 334 333 330 325 322 324 328 332 336 336 332 330 325 320 315 311 308 304 300 295 290 289 288 289 297
158 152 154 172 179 183 192 211 229 232 231 231 244 253 261 269 277 283 288 289 285 283 283 284 287 289 294 301 304 305 305 303 300 297 297 303 309 319 329 331 316 309 313 322 330 330 328 325 324 327 330 331 335 336 335 331 324 318 313 309 305 302 299 294 290 288 288 291 296